Regional Weather Roundup
Issued by NWS Grand Forks, ND

Home | Current Version | Previous Version | Text Only | Print | Product List | Glossary On
Versions: 1 2 3 4 5 6 7 8 9 10 11 12 13 14 15 16 17 18 19 20 21 22 23 24 25 26 27 28 29 30 31 32 33 34 35 36 37 38 39 40 41 42 43 44 45 46 47 48 49 50
000
ASUS43 KFGF 020931
RWRFGF
PRAIRIE TO PINES  WEATHER ROUNDUP
NATIONAL WEATHER SERVICE EASTERN NORTH DAKOTA/GRAND FORKS ND
400 AM CDT THU APR 02 2015

 **SATELLITE DATA USED TO AUGMENT SKY COVER AT AUTOMATED STATIONS**
 *****  WEATHER ACROSS EASTERN NORTH DAKOTA  *****

CITY           SKY/WX    TMP DP  RH WIND       PRES   REMARKS
GRAND FORKS    CLEAR     33  26  75 SW7       29.60F
GRAND FRKS AFB CLEAR     36  26  66 W12       29.60F
GRAND FRKS NWS   N/A     32 N/A N/A SW9         N/A  WCI  24
DEVILS LAKE    CLEAR     36  25  64 SW13      29.57F
FARGO          PTCLDY    40  28  62 SW13      29.67S
WAHPETON ARPT  PTSUNNY   36  28  75 W10       29.72S
$$

 ***** WEATHER ACROSS CENTRAL AND WESTERN NORTH DAKOTA  *****

CITY           SKY/WX    TMP DP  RH WIND       PRES   REMARKS
BISMARCK       CLEAR     36  21  54 SW7       29.71R
MINOT          CLEAR     39  23  52 SW16      29.57S
JAMESTOWN      PTCLDY    37  25  61 W12       29.67S
MINOT AFB      CLEAR     37  27  67 W22       29.56R
GARRISON         N/A     35  26  69 W14       29.62F
WILLISTON      MOCLDY    39  25  57 W18G26    29.64S
DICKINSON      CLEAR     34  16  47 W17       29.70F WCI  23
HETTINGER      CLEAR     33  17  51 W15       29.78R WCI  23
$$

 *****  OTHER AIRPORT OBSERVATIONS IN OUR AREA  *****

CITY           SKY/WX    TMP DP  RH WIND       PRES   REMARKS
WALHALLA         N/A     39  30  70 SW10G17   29.52F
GRAFTON AIRPOR NOT AVBL
VALLEY CITY AR FAIR      36  27  69 SW12      29.67S
CANDO          FAIR      32  27  80 W10       29.55F WCI  24
CAVALIER APRT  FAIR      37  28  70 SW3       29.54F
GWINNER        SUNNY     36  28  75 SW10        N/A
SHEYENNE NWR     N/A     32  26  77 W5        29.95
ROLLA          FAIR      32  27  80 SW14      29.52S WCI  22
 ***** THE ABOVE OBSERVATIONS ARE NON NWS ARE NOT QUALITY
       CONTROLLED AND MAY MIS-REPORT RAIN FOR SNOW...
$$

  *****  WEATHER ACROSS NORTHERN MINNESOTA  *****

CITY           SKY/WX    TMP DP  RH WIND       PRES   REMARKS
FLAG ISLAND    CLEAR     37  34  87 W15       29.48F
WARROAD        CLEAR     37  34  87 SW7G16    29.53F
ROSEAU         CLEAR     37  32  81 SW12      29.53F
HALLOCK        CLEAR     34  30  86 SW8       29.55F
THF RVR FALLS  CLEAR     37  30  75 SW10      29.60S
BAUDETTE       CLEAR     40  34  79 SW10      29.53F
WASKISH        PTCLDY    36  34  93 SW10      29.57S
CROOKSTON      CLEAR     37  28  70 W10       29.62S
STEPHEN NDAWN    N/A     36  30  80 SW9         N/A
GREENBUSH NDAW   N/A     36  30  80 SW10        N/A
$$
  *****  WEATHER ACROSS CENTRAL AND WEST MINNESOTA  *****

CITY           SKY/WX    TMP DP  RH WIND       PRES   REMARKS
FOSSTON        CLEAR     32  28  86 SW8       29.63S WCI  25
BEMIDJI        PTCLDY    38  32  78 SW9       29.61S
PARK RAPIDS    PTCLDY    36  31  82 W9        29.64R
ELBOW LAKE     FAIR      35  29  79 W6        29.72S
WADENA         MOCLDY    37  30  75 SW6       29.68R
DETROIT LAKES  PTCLDY    41  32  70 SW9       29.68R
MOORHEAD       PTCLDY    37  30  75 SW8       29.68S
FERGUS FALLS   CLOUDY    34  27  75 W8        29.72S
MORRIS MN      CLOUDY    39  30  70 W9        29.73R
STAPLES        MOCLDY    39  32  75 W7        29.67R
$$
  *****  WEATHER ELSEWHERE ACROSS MINNESOTA  *****

CITY           SKY/WX    TMP DP  RH WIND       PRES   REMARKS
DULUTH         MOCLDY    48  36  63 W17G24    29.56R
INTRNTL FALLS  CLEAR     40  33  76 W10       29.51S
ELY            MOCLDY    43  36  75 W13G18    29.52R
CLOQUET        CLOUDY    46  36  66 W10       29.60R
WHEATON        MOCLDY    37  27  65 SW8       29.76S
BRAINERD       MOCLDY    42  33  70 W7        29.66R
HIBBING        PTCLDY    43  34  70 W9        29.57R
ALEXANDRIA     CLOUDY    39  32  76 W9        29.72R
SAINT CLOUD    CLOUDY    45  34  65 W8        29.69R
MINNEAPOLIS    CLOUDY    51  34  52 NW15G23   29.69R
$$

  *****  WEATHER ACROSS SOUTH DAKOTA  *****

CITY           SKY/WX    TMP DP  RH WIND       PRES   REMARKS
SIOUX FALLS    CLOUDY    44  29  55 CALM      29.79F
BROOKINGS      CLOUDY    39  30  70 CALM      29.79F
WATERTOWN      MOCLDY    42  28  57 W8        29.77S
HURON          MOCLDY    37  25  61 W5        29.80F
SISSETON         N/A     43  29  57 W14       29.74R
ABERDEEN       CLOUDY    28  21  75 SW9       29.78R WCI  19
MITCHELL       MOCLDY    42  27  55 W3        29.82F
PIERRE         PTCLDY    37  16  42 SW12      29.83R
MOBRIDGE       CLEAR     32  23  69 CALM      29.77R
RAPID CITY     CLEAR     26  11  52 W6        29.87S WCI  19
$$

  *****  SOME WEATHER IN NEARBY STATES *****

CITY           SKY/WX    TMP DP  RH WIND       PRES   REMARKS
GLASGOW MT     MOCLDY    35  24  64 W25G38    29.76R WCI  23
GREAT FALLS MT CLOUDY    31  25  78 NW17      30.04R WCI  19
CHEYENNE WY    PTCLDY    29  22  75 W5        29.94S WCI  24
SCOTTSBLUFF NE PTCLDY    30  23  75 NW8       29.94S WCI  22
OMAHA NE       CLOUDY    54  53  97 W5        29.72S
DES MOINES IA  RAIN      57  54  89 NW16      29.72R FOG
DAVENPORT IA   MOCLDY    60  49  66 S14G22    29.66F
CHICAGO IL     MOCLDY    56  33  42 S16       29.74F
EAU CLAIRE WI  CLOUDY    54  49  83 W10       29.60R
LA CROSSE WI   CLOUDY    60  51  72 W9        29.63R
$$

  *****  SOME NATIONAL WEATHER *****

CITY           SKY/WX    TMP DP  RH WIND       PRES   REMARKS
LA GUARDIA NY  CLEAR     41  17  38 S5        30.23R
RALEIGH NC     PTCLDY    45  36  70 SW5       30.29R
ATLANTA GA     MOCLDY    60  53  77 SE6       30.12R
NEW ORLEANS LA CLOUDY    70  66  87 S3        30.04S
OKLAHOMA CITY  PTCLDY    68  59  73 S18G29    29.68F
ALBUQUERQUE NM CLEAR     50  22  33 E9        29.98R
SALT LAKE CITY CLOUDY    42  18  37 N7        29.95S
LOS ANGELES CA CLEAR     56  48  74 CALM      29.96S
BOISE ID       CLEAR     33  23  66 CALM      30.14R
SEATTLE WA     MOCLDY    43  41  93 CALM      30.35R
$$

*** WEATHER ACROSS MANITOBA...SASKATCHEWAN AND ONTARIO ***
                ***ONTARIO***

CITY           SKY/WX    TMP DP  RH WIND       PRES   REMARKS
GERALDTON      MOCLDY    34  32  93 S5        29.36F
THUNDER BAY    CLOUDY    30  30 100 SW5       29.41S FOG
SIOUX LOOKOUT  CLOUDY    37  34  87 SW9       29.37R
TORONTO        MOCLDY    36  27  69 SE6       29.99F
BIG TROUT LK   LGT RAIN  32  32 100 E6        29.34F FOG
PICKLE LAKE    NOT AVBL
DRYDEN         CLOUDY    41  37  87 W20G26    29.39S
KENORA         PTCLDY    37  34  87 SW12      29.46F
$$
                *** MANITOBA***

CITY           SKY/WX    TMP DP  RH WIND       PRES   REMARKS
BRANDON        PTCLDY    34  30  86 SW13      29.46F WCI  25
DAUPHIN        MOCLDY    32  28  86 N5        29.42S
ISLAND LAKE    NOT AVBL
PILOT MOUND      N/A     32  28  86 SW5         N/A
THE PAS        LGT SNOW  14  10  85 N17       29.68R VSB 3/4 WCI  -3
THOMPSON       LGT SNOW   1  -4  78 N21G31    29.79R DRFTSNOWWCI -20
WINNIPEG       CLEAR     34  28  80 SW9       29.49R
LYNN LAKE      CLEAR     -6 -11  77 N12       29.94S WCI -24
CHURCHILL      CLEAR     -9 -13  84 N12       30.02F WCI -29
GILLAM         LGT SNOW   0  -6  78 NE23G30   29.79S VSB 1   WCI -24
$$
                ***SASKATCHEWAN***

CITY           SKY/WX    TMP DP  RH WIND       PRES   REMARKS
ESTEVAN        FLURRIES  37  27  65 W22G30    29.52S
KINDERSLEY     FLURRIES  28  23  80 N28G37    29.86R WCI  13
LLOYDMINSTER   CLOUDY    23  19  86 N13G20    29.96R WCI  11
PRINCE ALBERT  LGT SNOW  21  18  86 N20G29    29.78R WCI   6
REGINA         LGT SNOW  34  32  93 NW18G30   29.49R WCI  23
YORKTON        LGT RAIN  36  30  80 N12       29.42R
N. BATTLEFORD  CLOUDY    27  23  86 N22G32    29.89R WCI  12
LA RONGE       MOCLDY    10   7  85 N13       29.94R WCI  -5
SASKATOON      LGT SNOW  23  21  93 N21G29    29.79R DRFTSNOWWCI   8
SWIFT CURRENT  LGT SNOW  23  21  93 N28G37    29.74R WCI   6
$$
NOTE: THESE ARE AUTOMATED STATIONS WITH LIMITED QUALITY CONTROL
      "FAIR" INDICATES FEW OR NO CLOUDS BELOW 12,000 FEET WITH NO
      SIGNIFICANT WEATHER AND/OR OBSTRUCTIONS TO VISIBILITY.
      SKY/WX - SKY CONDITION AND SIGNIFICANT WEATHER.
      TMP - AIR TEMPERATURE.    DP   - DEWPOINT TEMPERATURE.
      RH  - RELATIVE HUMIDITY.  PRES - PRESSURE.
      HX  - HEAT INDEX.         WCI  - WIND CHILL INDEX.
$


USA.gov is the U.S. government's official web portal to all federal, state and local government web resources and services.